Location: Berlin
(38.3226°N, 75.2177°W)
Time: 06:38:21
(UTC+00:00)

Cosmos 1697 Rocket - Pass Details

Date: 26 October 2020
Orbit: 831 x 845 km, 71.0° (Epoch: 26 November)

Event Time Altitude Azimuth Distance (km) Brightness Sun altitude
Rises 00:57:09 0° 227° (SW) 3,363 6.3 -33.5°
Reaches altitude 10° 00:59:49 10° 237° (WSW) 2,435 5.6 -34.1°
Maximum altitude 01:04:47 33° 301° (WNW) 1,380 4.2 -35.0°
Enters shadow 01:06:13 29° 329° (NNW) 1,498 4.2 -35.3°
